DELTA 1 DEB, 10662

Orbit data source: Space-Track

DELTA 1 DEB, 10662 is space debris in SSO originally from a launch on Thu, 29 Jul 1976 UTC launched from the Air Force Western Test Range (AFWTR). Debris objects in space refer to the collection of defunct objects orbiting the Earth. Examples of debris include non-operational satellites, rocket bodies, and fragments generated from explosions, collisions, or faulty payload assembly.

Loading next visibility...
Identifier
10662, 1976-077Y
Orbit
SSO
Country
Flag of USUS
Related business
Manufacturer
Unknown
Mission
Spacecraft
Bus & Motor
Unknown
Mass
Unknown
Launch date (UTC)
1976-07-29 (50 years ago)
Launch vehicle
Unknown
Launch site
Air Force Western Test Range (AFWTR)
Object type
Payload
Rocket body
Debris
Shape & HBR
Unknown shape, 0.2 m
Radar Cross Section
Medium (>0.1 m² and <1 m²)

Expand to show TLE details & history
Last TLE update: 10 hours ago

TLE from 10 hours ago
0 DELTA 1 DEB
1 10662U 76077Y   26256.06979840  .00000637  00000-0  22091-2 0  9998
2 10662 100.8066 306.2496 0244617  10.2361  51.0866 12.92256198348652
Epoch: 2026-09-13T01:40Z
TLE epoch observation values (Epoch: 2026-09-13T01:40:30.581Z)
Latitude
61.66354°
Longitude
-91.56715°
Altitude
1,187.957 km
Speed
7.32 km/s
True Right ascension
19h 02m 31s
True Declination
61° 31' 40"
Sunlit
Object was in daylight at epoch
Visualization orbit readout
Latitude
Unknown
Longitude
Unknown
Altitude
Unknown
Speed
Unknown
Apparent Right ascension
Unknown
Apparent Declination
Unknown
Sunlit
N/A
Visualization observer readout
Local Sidereal Time
03:55:02
Azimuth
Unknown
Elevation
Unknown
Doppler factor
Unknown
Orbital elements
Apogee altitude
1,477.593 km
Perigee altitude
1,102.441 km
Semi-major axis
7,668.154 km
Eccentricity
0.02446
Inclination
100.8066°
RAAN
306.2496°
Arg. of periapsis
10.2361°
True anomaly
53.3098°
Mean anomaly
51.0866°
Eccentric anomaly
52.19395°
Mean motion
3.23226 °/min
Orbital period
111.38 mins
BSTAR
0.0022091
Loading maneuver chart data...
Computing Atmospheric mass density...
Loading historical data...
Loading historical data...
Loading historical data...
Loading historical data...
Loading historical data...
Loading historical data...
Loading historical data...

Documentation

Showing up to 5 results
|